User: anonymous   Login
Location: Unspecified
(0.0000°N, 0.0000°E)
Time: 20:21:34
(UTC+00:00)
Language:

Resurs 1-4 Rocket - Orbit

View from above orbital plane
View from above orbital plane
View from above satellite
View from above satellite

Ground track
Ground track

The orbit data is extracted from the following two-line orbital elements,

1 25400U 98043G   19110.88648334 -.00000028 +00000-0 +64588-5 0  9998
2 25400 098.5683 050.6326 0010815 126.5128 233.7049 14.25439549080679
Epoch (UTC): 20 April 2019 21:16:32
Eccentricity: 0.0010815
inclination: 98.5683°
perigee height: 799 km
apogee height: 815 km
right ascension of ascending node: 50.6326°
argument of perigee: 126.5128°
revolutions per day: 14.25439549
mean anomaly at epoch: 233.7049°
orbit number at epoch: 8067

The dashed part of the orbit path shows where the satellite is in the earth's shadow,  

DLR